[[{"header":{"parameterUnit":"m.s-1","parameterCategory":1,"la1":30.2992,"la2":30.254,"lo1":-89.0895,"lo2":-89.0443,"dy":0.0025,"dx":0.0025,"nx":19,"ny":19,"refTime":"2026-03-13T21:00:00:Z","depth":0,"parameterNumber":2,"parameterNumberName":"U-component_of_WINDS"},"data":[0,0,0,0.2768,0.2769,0.283,0.283,0.2908,0.2909,0,0,0,0,0,0,0,0,0,0,0,0.2749,0.275,0.2767,0.2769,0.283,0.283,0.2908,0.2909,0,0,0,0,0,0,0,0,0,0,0,0.2749,0.2749,0.275,0.2769,0.283,0.283,0.2908,0.2862,0,0,0,0,0,0,0,0,0,0,0.2803,0.2785,0.2749,0.275,0.277,0.283,0.283,0.286,0.2865,0.2881,0,0.2894,0,0.2903,0.2914,0.2914,0,0,0,0.2769,0.2781,0.2798,0.275,0.277,0.2829,0.2802,0.2863,0.2868,0.2888,0.2895,0.2898,0.2904,0.2915,0.2915,0.3005,0.3006,0,0,0.2766,0.276,0.2794,0.2802,0.2792,0.28,0.2804,0.2866,0.2874,0.2896,0.29,0.2905,0.2915,0.2916,0.3005,0.3006,0,0,0,0.2756,0.2757,0.2773,0.2798,0.2809,0.2802,0.2807,0.2872,0.2877,0.2901,0.2906,0.2916,0.2917,0.3005,0.3005,0.302,0,0,0,0.2754,0.2752,0.2771,0.2768,0.2808,0.2841,0.2811,0.2873,0.288,0.2906,0.2916,0.2917,0.3004,0.3005,0.3018,0.3027,0,0,0,0.2745,0.2751,0.2759,0.2768,0.2794,0.284,0.2849,0.2874,0.2883,0.2915,0.2918,0.3004,0.3005,0.3017,0.3025,0.305,0,0,0,0.2734,0.277,0.2759,0.2802,0.2793,0.2849,0.2849,0.289,0.2919,0.2916,0.3004,0.3005,0.3017,0.3024,0.3049,0.307,0.3078,0,0,0.2776,0.2775,0.2801,0.2793,0.2849,0.284,0.2898,0.293,0.2938,0.2983,0.2985,0.3019,0.3025,0.305,0.3126,0.3132,0,0,0,0.2812,0.2831,0.2847,0.2874,0.29,0.2923,0.2947,0.2959,0.2997,0.296,0.3035,0.3039,0.3053,0.3064,0.3069,0.3083,0.301,0.301,0.3009,0.2862,0.2873,0.2917,0.2934,0.2961,0.2986,0.3009,0.303,0.3031,0.3049,0.3062,0.3107,0.3118,0.3123,0.3136,0.3074,0.3074,0.3074,0.3074,0.2926,0.2954,0.2957,0.3001,0.3012,0.3049,0.3075,0.3075,0.3112,0.3097,0.311,0.3093,0.3129,0.3142,0.3075,0.3075,0.3075,0.3075,0.3074,0.2959,0.2975,0.299,0.3032,0.3063,0.3081,0.3116,0.3125,0.3133,0.3146,0.3162,0.3162,0.3163,0.3153,0.3153,0.3154,0.3154,0.3154,0.3154,0.2988,0.3005,0.3034,0.3066,0.3086,0.3113,0.3141,0.3161,0.3185,0.3188,0.3189,0.3189,0.3131,0.3116,0.3156,0.3156,0.3156,0.3155,0.3155,0.3048,0.3037,0.3081,0.3101,0.3141,0.3173,0.3184,0.3225,0.3243,0.326,0.3259,0.3214,0.3213,0.3209,0.3197,0.3256,0.3256,0.3256,0.3256,0.3076,0.3078,0.3127,0.3158,0.3191,0.3206,0.3258,0.3281,0.3303,0.3315,0.3308,0.3293,0.3288,0.329,0.3284,0.3273,0.335,0.335,0.335,0.3114,0.3119,0.3161,0.3183,0.3216,0.3244,0.3293,0.3331,0.3353,0.3354,0.3325,0.3321,0.3297,0.3288,0.3287,0.3277,0.3257,0,0]},{"header":{"parameterUnit":"m.s-1","parameterCategory":1,"la1":30.2992,"la2":30.254,"lo1":-89.0895,"lo2":-89.0443,"dy":0.0025,"dx":0.0025,"nx":19,"ny":19,"refTime":"2026-03-13T21:00:00:Z","depth":0,"parameterNumber":3,"parameterNumberName":"V-component_of_WINDS"},"data":[0,0,0,6.1456,6.1457,6.1526,6.1527,6.1602,6.1603,0,0,0,0,0,0,0,0,0,0,0,6.1428,6.1428,6.1456,6.1457,6.1526,6.1527,6.1602,6.1603,0,0,0,0,0,0,0,0,0,0,0,6.1428,6.1428,6.1428,6.1458,6.1526,6.1527,6.1602,6.1554,0,0,0,0,0,0,0,0,0,0,6.149,6.1455,6.1428,6.1428,6.1458,6.1526,6.1527,6.1552,6.1557,6.1566,0,6.1571,0,6.1588,6.1607,6.1607,0,0,0,6.1463,6.1451,6.1477,6.1428,6.1459,6.1526,6.1497,6.1555,6.1561,6.1572,6.1572,6.1575,6.1589,6.1607,6.1608,6.1639,6.1639,0,0,6.1459,6.1435,6.1473,6.1481,6.1469,6.1494,6.1499,6.1559,6.1557,6.1572,6.1577,6.1591,6.1608,6.1608,6.1639,6.1639,0,0,0,6.1444,6.1432,6.1457,6.1477,6.1491,6.1496,6.1501,6.1554,6.1564,6.1578,6.1591,6.1608,6.1609,6.1639,6.1639,6.1611,0,0,0,6.1442,6.1424,6.1455,6.1441,6.1489,6.1523,6.1495,6.156,6.1568,6.1591,6.1608,6.161,6.164,6.1639,6.1612,6.1601,0,0,0,6.1426,6.1422,6.143,6.144,6.1469,6.1523,6.1537,6.1562,6.1576,6.1607,6.161,6.164,6.1639,6.1613,6.1603,6.1604,0,0,0,6.1401,6.1401,6.1429,6.1435,6.1468,6.1505,6.1536,6.1565,6.1588,6.1609,6.164,6.1639,6.1614,6.1604,6.1605,6.16,6.1596,0,0,6.1388,6.1399,6.1405,6.1431,6.1458,6.1496,6.1519,6.1562,6.1586,6.162,6.1621,6.1612,6.1603,6.1604,6.1582,6.1578,0,0,0,6.1393,6.1397,6.1409,6.1432,6.1467,6.1496,6.1539,6.1556,6.1587,6.1599,6.1613,6.1609,6.161,6.1609,6.1606,6.161,6.1638,6.1638,6.1638,6.1339,6.1373,6.1386,6.1428,6.145,6.1497,6.1518,6.1549,6.1574,6.1577,6.1587,6.1569,6.1567,6.1565,6.1569,6.1588,6.1587,6.1587,6.1587,6.1324,6.1336,6.1374,6.1399,6.1435,6.1457,6.1504,6.1522,6.1548,6.1564,6.1567,6.1581,6.156,6.1565,6.1585,6.1586,6.1586,6.1586,6.1586,6.1292,6.1304,6.1327,6.1366,6.1392,6.1436,6.1461,6.1493,6.1522,6.1525,6.154,6.1541,6.1546,6.1531,6.153,6.153,6.153,6.153,6.153,6.125,6.1277,6.1294,6.1335,6.1356,6.1387,6.1438,6.1459,6.1491,6.1512,6.1512,6.1538,6.1553,6.1556,6.1529,6.153,6.153,6.153,6.153,6.1221,6.1234,6.1261,6.1282,6.1335,6.136,6.1402,6.1444,6.1466,6.1478,6.1505,6.1511,6.1523,6.1526,6.1529,6.1497,6.1497,6.1497,6.1497,6.1194,6.1205,6.1242,6.1274,6.131,6.1352,6.1383,6.1423,6.1467,6.1484,6.1493,6.15,6.1501,6.1513,6.1516,6.1519,6.1486,6.1486,6.1486,6.1179,6.1196,6.1215,6.126,6.1305,6.1343,6.1374,6.141,6.1462,6.1486,6.1498,6.1498,6.1509,6.1511,6.1532,6.1536,6.1542,0,0]}]]